Flag for Canada Weather past 2 weeks in Glace Bay, Nova Scotia, Canada

Now
28 °F

Ice fog.


Feels Like: 22 °F
Forecast: 31 / 36 °F
Wind: 6 mph from East

Location: Sydney

Current Time: Apr 26, 2015 at 2:17:41 AM

Latest Report: Apr 26, 2015 at 1:03 AM


Visibility: 1 mi

Pressure: 29.63 "Hg

Humidity: 100%

Dew point: 28 °F

Location of Glace BayLocation

Historic Weather in Glace Bay — Graph

°F

Glace Bay temperature yesterday

Maximum temperature yesterday: 46 °F (at 6:00 PM)
Minimum temperature yesterday: 30 °F (at 11:00 PM)
Average temperature yesterday: 36 °F

Past Weeks' High & Low Weather Summary

 TemperatureHumidityPressure
High54 °F (Apr 17, 2:00 PM)100% (Apr 11, 2:00 AM)30.45 "Hg (Apr 11, 2:00 AM)
Low21 °F (Apr 13, 6:00 AM)31% (Apr 20, 11:00 AM)29.38 "Hg (Apr 11, 4:00 PM)
Average35 °F77%29.94 "Hg
* Reported Apr 11 1:00 AM — Apr 26 1:03 AM, Glace Bay, Weather by CustomWeather, © 2015

Note: Actual official high and low records may vary slightly from our data, if they occured in-between our weather recording intervals... More about our weather records

Advertising

Glace Bay weather history for previous 24 hours

 ConditionsComfort  
Time TempWeatherWind HumidityBarometerVisibility
1:03 AM
Sun, Apr 26
28 °FIce fog.6 mph100%29.63 "Hg1 mi
12:00 AM30 °FPassing clouds.No wind100%29.62 "Hg15 mi
11:00 PM
Sat, Apr 25
30 °FPassing clouds.2 mph93%29.63 "Hg15 mi
10:00 PM32 °FPassing clouds.3 mph93%29.62 "Hg15 mi
9:00 PM36 °FPassing clouds.6 mph87%29.63 "Hg15 mi
8:00 PM39 °FPartly sunny.7 mph81%29.62 "Hg15 mi
7:00 PM45 °FPartly sunny.8 mph66%29.59 "Hg15 mi
6:00 PM46 °FBroken clouds.2 mph66%29.56 "Hg15 mi
5:00 PM45 °FBroken clouds.3 mph71%29.55 "Hg15 mi
4:00 PM45 °FPartly sunny.6 mph66%29.57 "Hg15 mi
3:00 PM43 °FBroken clouds.No wind71%29.58 "Hg15 mi
2:00 PM41 °FPartly sunny.8 mph81%29.59 "Hg10 mi
1:00 PM37 °FLow clouds.3 mph81%29.59 "Hg10 mi
12:00 PM36 °FFog.6 mph93%29.59 "Hg4 mi
11:00 AM36 °FFog.2 mph87%29.62 "Hg3 mi
10:50 AM36 °FFog.2 mph87%29.62 "Hg3 mi
10:00 AM34 °FFog.6 mph93%29.60 "Hg1 mi
9:00 AM32 °FIce fog.3 mph100%29.61 "Hg1 mi
8:00 AM32 °FIce fog.3 mph100%29.59 "Hg1 mi
7:00 AM32 °FIce fog.2 mph93%29.61 "Hg1 mi
6:00 AM32 °FIce fog.No wind93%29.60 "Hg3 mi
5:00 AM32 °FIce fog.3 mph93%29.60 "Hg5 mi
4:00 AM32 °FIce fog.6 mph93%29.59 "Hg5 mi
3:00 AM34 °FFog.8 mph87%29.60 "Hg5 mi
2:00 AM34 °FFog.8 mph93%29.60 "Hg5 mi
Weather by CustomWeather, © 2015

See weather overviewHow to use our weather pages